This demonstration page uses our WeatherBlox Daily Observations layout. Learn more.

Left ArrowRight Arrow

36.17497, -115.13722

Hourly Observations for May 21, 2017

Temp ( °F °C ) Dew Point ( °F °C ) Humidity (%) Winds ( mph kmh ) Pressure ( in mb ) Visibility ( mi km ) Precip ( " mm )
12:53 am 00:53 Clear 72 22.2 35 1.7 26 26 WNW 6 9 29.90 1013 10 16 0.00 0.00
1:53 am 01:53 Clear 71 21.7 35 1.7 27 27 WNW 5 7 29.89 1012 10 16 0.00 0.00
2:53 am 02:53 Clear 68 20 36 2.2 31 31 NNW 5 7 29.90 1013 10 16 0.00 0.00
3:53 am 03:53 Clear 67 19.4 37 2.8 33 33 NW 3 6 29.91 1013 10 16 0.00 0.00
4:53 am 04:53 Clear 65 18.3 36 2.2 34 34 NNW 3 6 29.91 1013 10 16 0.00 0.00
5:53 am 05:53 Sunny 64 17.8 35 1.7 34 34 NW 5 7 29.93 1014 10 16 0.00 0.00
6:53 am 06:53 Sunny 68 20 36 2.2 31 31 WNW 5 7 29.96 1014 10 16 0.00 0.00
7:53 am 07:53 Sunny 75 23.9 32 0 21 21 Calm 29.96 1015 10 16 0.00 0.00
8:53 am 08:53 Sunny 79 26.1 29 -1.7 16 16 SE 6 9 29.96 1015 10 16 0.00 0.00
9:53 am 09:53 Sunny 81 27.2 28 -2.2 14 14 ESE 7 11 29.96 1015 10 16 0.00 0.00
10:53 am 10:53 Sunny 85 29.4 28 -2.2 13 13 SE 8 13 29.96 1014 10 16 0.00 0.00
11:53 am 11:53 Sunny 87 30.6 26 -3.3 11 11 VRB 3 6 29.93 1014 10 16 0.00 0.00
12:53 pm 12:53 Sunny 90 32.2 24 -4.4 9 9 VRB 5 7 29.91 1013 10 16 0.00 0.00
1:53 pm 13:53 Sunny 94 34.4 22 -5.6 7 7 undefined N/A 29.88 1012 10 16 0.00 0.00
2:53 pm 14:53 Sunny 93 33.9 22 -5.6 7 7 VRB 5 7 29.86 1011 10 16 0.00 0.00
3:53 pm 15:53 Sunny 96 35.6 21 -6.1 6 6 E 7 11 29.84 1010 10 16 0.00 0.00
4:53 pm 16:53 Sunny 95 35 22 -5.6 7 7 WNW 10 17 29.83 1010 10 16 0.00 0.00
5:53 pm 17:53 Sunny 94 34.4 21 -6.1 7 7 N 6 9 29.83 1010 10 16 0.00 0.00
6:53 pm 18:53 Sunny 93 33.9 21 -6.1 7 7 W 6 9 29.83 1010 10 16 0.00 0.00
7:53 pm 19:53 Clear 91 32.8 22 -5.6 8 8 W 6 9 29.84 1010 10 16 0.00 0.00
8:53 pm 20:53 Clear 89 31.7 24 -4.4 9 9 E 6 9 29.86 1011 10 16 0.00 0.00
9:53 pm 21:53 Clear 86 30 24 -4.4 10 10 NE 7 11 29.88 1012 10 16 0.00 0.00
10:53 pm 22:53 Clear 84 28.9 26 -3.3 12 12 NNE 5 7 29.90 1012 10 16 0.00 0.00
11:53 pm 23:53 Clear 84 28.9 31 -0.6 15 15 ENE 10 17 29.91 1013 10 16 0.00 0.00

Powered by AerisWeather